Weather History for KBDR - December, 2012

Change the Weather History Date:

Monday, December 31, 2012

  Actual Average Record
Temperature  
Mean Temperature 32 °F 31 °F  
Max Temperature 38 °F 38 °F 57 °F (1965)
Min Temperature 26 °F 24 °F 0 °F (1962)
Degree Days  
Heating Degree Days 33 34  
Month to date heating degree days 780 921  
Since 1 July heating degree days 1696 1893  
Cooling Degree Days 0 0  
Month to date cooling degree days 0 0  
Year to date cooling degree days 1075 825  
Moisture  
Dew Point 21 °F    
Average Humidity 61    
Maximum Humidity 69    
Minimum Humidity 52    
Precipitation  
Precipitation 0.00 in 0.09 in 1.71 in (1948)
Month to date precipitation 4.32 3.33  
Year to date precipitation 40.99 42.74  
Snow  
Snow 0.00 in 0.20 in 3.50 in (2008)
Month to date snowfall 7.8 5.1  
Since 1 July snowfall 16.2 5.8  
Snow Depth 0.00 in    
Sea Level Pressure  
Sea Level Pressure 30.04 in    
Wind  
Wind Speed 12 mph (WSW)    
Max Wind Speed 20 mph    
Max Gust Speed 28 mph    
Visibility 10 miles    
Events      
T = Trace of Precipitation, MM = Missing Value Source: NWS Daily Summary

Daily Weather History Graph

Daily Weather History Graph

Search for Another Location

Airport or City:

Trip Planner

Search our weather history database for the weather conditions in past years. The results will help you decide how hot, cold, wet, or windy it might be!

Date:

Astronomy

Dec. 31, 2012 Rise Set
Actual Time 7:17 AM EST 4:33 PM EST
Civil Twilight 6:46 AM EST 5:04 PM EST
Nautical Twilight 6:12 AM EST 5:39 PM EST
Astronomical Twilight 5:38 AM EST 6:13 PM EST
Moon 8:03 PM EST (12/31) 8:56 AM EST (12/31)
Length of Visible Light 10h 18m
Length of Day
9h 15m
Waning Gibbous, 90% of the Moon is Illuminated
Dec 31
Waning Gibbous
Jan 4
Last Quarter
Jan 11
New
Jan 18
First Quarter
Jan 26
Full

Hourly Weather History & Observations

Time (EST) Temp. Windchill Dew Point Humidity Pressure Visibility Wind Dir Wind Speed Gust Speed Precip Events Conditions
12:52 AM 27.0 °F 18.0 °F 12.9 °F 56% 30.13 in 10.0 mi West 9.2 mph - N/A   Clear
1:52 AM 27.0 °F 16.1 °F 15.1 °F 61% 30.14 in 10.0 mi West 12.7 mph 19.6 mph N/A   Clear
2:52 AM 28.0 °F 19.3 °F 16.0 °F 61% 30.15 in 10.0 mi WSW 9.2 mph - N/A   Clear
3:52 AM 28.0 °F 18.1 °F 18.0 °F 66% 30.13 in 10.0 mi WSW 11.5 mph 18.4 mph N/A   Clear
4:52 AM 28.9 °F 19.2 °F 18.0 °F 64% 30.14 in 10.0 mi WSW 11.5 mph 20.7 mph N/A   Clear
5:52 AM 28.9 °F 18.2 °F 18.0 °F 64% 30.14 in 10.0 mi WSW 13.8 mph 21.9 mph N/A   Clear
6:52 AM 30.0 °F 20.5 °F 19.9 °F 66% 30.14 in 10.0 mi West 11.5 mph 17.3 mph N/A   Clear
7:52 AM 30.0 °F 21.1 °F 19.9 °F 66% 30.15 in 10.0 mi West 10.4 mph - N/A   Clear
8:52 AM 30.2 °F 21.9 °F 19.4 °F 64% 30.13 in 10.0 mi West 9.2 mph - N/A   Clear
9:52 AM 30.9 °F 22.2 °F 21.0 °F 67% 30.14 in 10.0 mi WSW 10.4 mph 18.4 mph N/A   Clear
10:52 AM 33.1 °F 23.9 °F 21.0 °F 61% 30.11 in 10.0 mi West 12.7 mph - N/A   Clear
11:52 AM 34.0 °F 25.5 °F 21.0 °F 59% 30.07 in 10.0 mi West 11.5 mph 20.7 mph N/A   Clear
12:52 PM 36.0 °F 28.5 °F 21.0 °F 55% 30.03 in 10.0 mi West 10.4 mph - N/A   Clear
1:52 PM 37.0 °F 31.0 °F 21.9 °F 54% 30.01 in 10.0 mi West 8.1 mph 18.4 mph N/A   Clear
2:52 PM 37.0 °F 30.4 °F 23.0 °F 57% 29.99 in 10.0 mi WSW 9.2 mph - N/A   Clear
3:52 PM 37.0 °F 29.8 °F 24.1 °F 59% 29.95 in 10.0 mi WSW 10.4 mph - N/A   Clear
4:52 PM 37.9 °F 28.5 °F 26.1 °F 62% 29.94 in 10.0 mi SW 17.3 mph 23.0 mph N/A   Clear
5:52 PM 37.0 °F 27.7 °F 25.0 °F 62% 29.94 in 10.0 mi WSW 16.1 mph - N/A   Clear
6:52 PM 37.0 °F 28.5 °F 23.0 °F 57% 29.93 in 10.0 mi WSW 13.8 mph 23.0 mph N/A   Partly Cloudy
7:52 PM 37.0 °F 28.9 °F 23.0 °F 57% 29.92 in 10.0 mi WSW 12.7 mph 20.7 mph N/A   Scattered Clouds
8:52 PM 37.0 °F 29.8 °F 23.0 °F 57% 29.88 in 10.0 mi WSW 10.4 mph - N/A   Overcast
9:52 PM 37.0 °F 30.4 °F 23.0 °F 57% 29.87 in 10.0 mi WSW 9.2 mph - N/A   Overcast
10:52 PM 37.9 °F 30.0 °F 24.1 °F 57% 29.86 in 10.0 mi WSW 12.7 mph 21.9 mph N/A   Overcast
11:52 PM 37.9 °F 30.5 °F 25.0 °F 60% 29.86 in 10.0 mi WSW 11.5 mph 26.5 mph N/A   Overcast